STARLINK-34492, 64473

Orbit data source: Space-Track

STARLINK-34492, 64473 is a payload satellite owned by SpaceX/Seattle (US) in LEO that was launched on Mon, 23 Jun 2025 UTC via an FALCON 9 launch vehicle from the Air Force Eastern Test Range (AFETR). Payload-class satellites include a variety of spacecraft equipped with specific instruments for various scientific and technological missions. These include communications satellites like Starlink; space stations such as the ISS; scientific satellites like the Hubble; Earth observation satellites from companies like Planet Labs, Umbra, and HawkEye 360; GPS; miniature CubeSats for education and research; and military/defense satellites.

Loading next visibility...
Identifier
64473, 2025-133B
Orbit
LEO
Last TLE update
20 hours ago
Origin
Manufacturer
SpaceX/Seattle
Mission
Operational spacecraft
Bus & Motor
STARLINK V2MO, Unknown motor
Mass
575 kg wet, ~530 kg dry
Launch date (UTC)
2025-06-23 (1 week ago)
Launch vehicle
FALCON 9
Launch site
Air Force Eastern Test Range (AFETR)
Object type
Payload
Rocket body
Debris
Shape & HBR
Unknown
Radar Cross Section
RCS unknown

Expand to show TLE details & history

TLE from 20 hours ago
0 STARLINK-34492
1 64473U 25133B   25181.91668981 -.01037642  00000-0 -42584-2 0  9993
2 64473  53.1554 219.2639 0001015  75.1330 102.1614 15.87707684  2456
Epoch: 2025-06-30T22:00Z
TLE epoch observation values (Epoch: 2025-06-30T22:00:01.999Z)
Latitude
2.08697°
Longitude
148.48011°
Altitude
309.529 km
Speed
7.724 km/s
True Right ascension
02h 30m 49s
True Declination
2° 04' 25"
Sunlit
Object was in daylight at epoch
Visualization orbit readout
Latitude
-53.31007°
Longitude
-124.50942°
Altitude
333.137 km
Speed
7.708 km/s
Apparent Right ascension
14h 02m 30s
Apparent Declination
-71° 46' 54"
Sunlit
Object is in daylight
Visualization observer readout
Local Sidereal Time
05:42:06
Azimuth
157.357° SSE
Elevation
-48.364°
Doppler factor
1
Orbital elements
Apogee altitude
309.654 km
Perigee altitude
308.296 km
Semi-major axis
6,687.112 km
Eccentricity
0.0001
Inclination
53.1554°
RAAN
219.2639°
Arg. of periapsis
75.133°
True anomaly
Unknown
Mean anomaly
102.1614°
Eccentric anomaly
Unknown
Mean motion
3.96904 °/min
Orbital period
90.7 mins
BSTAR
-0.0042584
Loading maneuver chart data...
Loading SW <> Apogee altitude chart data...
Loading historical data...
Loading historical data...
Loading historical data...
Loading historical data...
Loading historical data...
Loading historical data...
Loading historical data...

STARLINK-34492 Visibility forecast

Observer location: undefined°, undefined°

Span
Click to sort rows by Start time (UTC) header in descending order
Start Az.
Max El. time (UTC)
Max El. Az.
Max El.
End time (UTC)
End Az.
4 mins2025-07-02 05:12:24.452Z239.992° WSW2025-07-02 05:14:24.452Z321.164° NNW42.316°2025-07-02 05:16:24.452Z42.589° NE
4 mins2025-07-02 11:33:24.452Z319.075° NNW2025-07-02 11:35:24.452Z42.799° NE41.211°2025-07-02 11:37:24.452Z117.908° SE
|